Location: *
(40.4000°N, 15.1200°E)
Time: 00:34:29
(UTC+00:00)

Cosmos 2181 Rocket - Pass Details

Date: 09 April 2020
Orbit: 952 x 1014 km, 82.9° (Epoch: 25 May)

Event Time Altitude Azimuth Distance (km) Brightness Sun altitude
Exits shadow 19:28:03 13° 181° (S) 2,497 5.8 -21.2°
Maximum altitude 19:33:40 82° 96° (E) 987 3.9 -22.1°
Drops below altitude 10° 19:39:52 10° 9° (N) 2,706 6.6 -23.1°
Sets 19:42:22 0° 9° (N) 3,650 7.3 -23.5°
